WJA507 CYYC-CYXY

Flight info

Callsign WJA507
Flight time N/A
Altitude 34000
Route IPSIT Q810 SETGA DCT 54N119W 57N125W DCT DAPAL DAPAL3
Aircraft B738/M-SDE2E3FGHIRWXY/LB1

Departure

Time 2026-05-01 15:29
Airport Calgary International Airport (CYYC)

Arrival

Time N/A
Airport Whitehorse / Erik Nielsen International Airport (CYXY)
Time Latitude Longitude Altitude Speed Heading
2026-05-01 15:05 51.12945 -114.01329 3558 ft 0 kts 102°
2026-05-01 15:17 51.12948 -114.01351 3558 ft 4 kts 101°
2026-05-01 15:18 51.12952 -114.01474 3558 ft 4 kts 49°
2026-05-01 15:18 51.12933 -114.01487 3558 ft 4 kts
2026-05-01 15:19 51.12862 -114.01452 3555 ft 4 kts 318°
2026-05-01 15:19 51.12838 -114.01411 3558 ft 0 kts 311°
2026-05-01 15:21 51.12860 -114.01450 3555 ft 8 kts 311°
2026-05-01 15:21 51.12893 -114.01581 3558 ft 17 kts 274°
2026-05-01 15:21 51.12806 -114.01681 3555 ft 21 kts 182°
2026-05-01 15:22 51.12553 -114.01571 3558 ft 19 kts 168°
2026-05-01 15:22 51.12420 -114.01570 3554 ft 19 kts 180°
2026-05-01 15:22 51.12291 -114.01572 3558 ft 18 kts 180°
2026-05-01 15:23 51.12173 -114.01529 3555 ft 18 kts 135°
2026-05-01 15:23 51.12110 -114.01368 3557 ft 17 kts 120°
2026-05-01 15:23 51.12051 -114.01209 3556 ft 16 kts 121°
2026-05-01 15:23 51.11994 -114.01057 3558 ft 16 kts 121°
2026-05-01 15:24 51.11941 -114.00909 3556 ft 15 kts 120°
2026-05-01 15:24 51.11890 -114.00767 3557 ft 14 kts 120°
2026-05-01 15:24 51.11834 -114.00607 3556 ft 19 kts 111°
2026-05-01 15:24 51.11824 -114.00401 3558 ft 19 kts 88°
2026-05-01 15:25 51.11825 -114.00175 3558 ft 22 kts 90°
2026-05-01 15:25 51.11825 -113.99937 3558 ft 21 kts 89°
2026-05-01 15:25 51.11826 -113.99706 3558 ft 21 kts 89°
2026-05-01 15:25 51.11813 -113.99487 3557 ft 20 kts 124°
2026-05-01 15:26 51.11685 -113.99441 3555 ft 19 kts 181°
2026-05-01 15:26 51.11553 -113.99443 3559 ft 19 kts 180°
2026-05-01 15:26 51.11426 -113.99444 3559 ft 18 kts 180°
2026-05-01 15:26 51.11302 -113.99446 3557 ft 17 kts 180°
2026-05-01 15:27 51.11183 -113.99447 3559 ft 17 kts 180°
2026-05-01 15:27 51.11069 -113.99443 3559 ft 16 kts 158°
2026-05-01 15:27 51.11034 -113.99288 3559 ft 16 kts 90°
2026-05-01 15:28 51.11104 -113.99038 3560 ft 14 kts
2026-05-01 15:28 51.11274 -113.99037 3562 ft 52 kts
2026-05-01 15:28 51.11865 -113.99034 3558 ft 116 kts
2026-05-01 15:29 51.14172 -113.99034 3761 ft 201 kts
2026-05-01 15:29 51.15566 -113.98971 4587 ft 197 kts
2026-05-01 15:29 51.18210 -114.00094 5563 ft 221 kts 306°
2026-05-01 15:30 51.19449 -114.04829 6305 ft 241 kts 288°
2026-05-01 15:31 51.22054 -114.15721 8834 ft 275 kts 292°
2026-05-01 15:31 51.23466 -114.21421 10357 ft 280 kts 292°
2026-05-01 15:32 51.25021 -114.27611 10887 ft 323 kts 291°
2026-05-01 15:32 51.26811 -114.34712 11229 ft 365 kts 291°
2026-05-01 15:33 51.29752 -114.46408 12837 ft 382 kts 290°
2026-05-01 15:34 51.33273 -114.57987 14662 ft 392 kts 298°